Погода в Яйса

Испания     28°57′10″N   13°45′50″W
темп.,
°C
ветер,
м/с
пор.,
м/с
влажн.,
%
обл.,
%
осадки,
мм/ч
давл.,
гПа
погр.,
м
8 марта, пн
пн800:00+16с897437 0.1 1022970
03:00+16с797253 0.1 10201099
06:00+15с687348 0.1 1019589
09:00+17с787035 0.0 1020913
12:00+18с676932 0.1 1020900
15:00+18с786723 0.1 1019978
18:00+17с9106820 0.1 10181143
21:00+16с10127248 0.1 10201133
9 марта, вт
вт900:00+16с9117524 0.3 10201034
03:00+15с911757 0.1 1019881
06:00+15с11137725 0.5 1018960
09:00+16с11126337 0.2 10201482
12:00+16ссв12136431 0.3 10211357
15:00+16с11126420 0.0 10201307
18:00+15с11136937 0.1 10191120
21:00+15с12146925 0.0 10211105
10 марта, ср
ср1000:00+15ссв12147022 0.1 10211090
03:00+14ссв10127425 0.0 10211030
06:00+14ссв9127531 0.1 1020738
09:00+15ссв10117161 0.0 10221115
12:00+16ссв10116978 0.1 1023998
15:00+17ссв12136739 0.0 1022941
18:00+16ссв11137019 0.0 1021901
21:00+16ссв1013710 0.0 1023876
11 марта, чт
чт1100:00+16ссв912720 0.0 1023822
03:00+15св812790 0.0 1022639
06:00+15св913800 0.0 1022569
09:00+17св811741 0.0 1023721
12:00+21в67511 0.0 1024575
15:00+22вюв68380 0.0 1022508
18:00+21св55400 0.0 1022342
21:00+17св79740 0.0 1023261
12 марта, пт
пт1200:00+17всв811740 0.0 1024250
03:00+16всв710760 0.0 1023280
06:00+15всв57800 0.0 1023201
09:00+17всв57680 0.0 1024320
12:00+21всв33530 0.0 1024409
15:00+20ссв76590 0.0 1022610
18:00+18св910700 0.0 1022520
21:00+16св811770 0.0 1023577